Погода в Сухане

Поиск расширенной информации на нашем сайте:

Полезная информация:

Новости сайта



02.01.2020
Опубликован Долгосрочный прогноз погоды по городам России и ближнего зарубежья на январь 2020 года.
Карты: Прогноз на январь и февраль 2020 года, Сравнение прогнозируемой аномалии приземной температуры воздуха на январь 2020 года по разным моделям.




Погода в Сухане - сегодня

Время (UTC), дата Ветер
(°,м/с) 
Видим.   Явления Облачность Т
(°С)
Тd
(°С)
f(%) Тe
(°С)
Pmin
(гПа)
dP
(гПа)
Po
(мм)
O2
(г/м3)
Тmin Tmax R s Состояние
почвы
09 23.11.20 тихо ()   20000 м    3/0 средняя 
[Ac trans]
-23.2 -25 85 -23  1011.8  1.3  751  332           
12 23.11.20 тихо ()   20000 м    3/0 средняя 
[Ac trans]
-27.1 -28.8 85 -27  1013  1.2  752  338    -19.1       
15 23.11.20 тихо ()   20000 м    ясно 
-30.3 -32.1 84 -30  1014.7  1.5  753  343           
18 23.11.20 тихо ()   20000 м    ясно 
-32.2 -33.9 85 -32  1016.2  1.5  754  346           
21 23.11.20 тихо ()   20000 м  слаб. снег  10/0 средняя 
[As op]
-29 -30.7 85 -29  1018.2  755  342           
00 24.11.20 тихо ()   20000 м  слаб. снег  10/0 средняя 
[As op]
-26.9 -28.6 85 -27  1019.3  1.3  756  340  -32.8    0.2  22  равномерный
сухой снег
100% 
15 24.11.20 тихо ()   20000 м    6/0 средняя 
[Ac trans]
-24.3 -26.1 85 -24  1016  761  339           
18 24.11.20 тихо ()   20000 м    6/0 средняя 
[Ac trans]
-26.1 -27.9 85 -26  1027.2  1.2  762  341           
21 24.11.20 230 (ЮЗ) 20000 м  слаб. снег  10/0 средняя, верхняя 
[Ac trans|Cs]
-21.3 -23.1 85 -22  1027.6  0.6  763  335           
00 25.11.20 тихо ()   20000 м  {снег}  8/0 средняя, верхняя 
[Ac trans|Cs]
-21.8 -23.6 85 -22  1028.5  0.9  763  336  -26.3    0.0  22  равномерный
сухой снег
100% 
03 25.11.20 270 (З) 20000 м    10/0 средняя 
[As op]
-18.5 -20.4 85 -19  1028.6  0.1  764  332           
06 25.11.20 270 (З) 20000 м    6/0 средняя, верхняя 
[Ac trans|Cs]
-19.3 -21.2 85 -20  1029.6  764  333           
09 25.11.20 270 (З) 20000 м    3/0 средняя 
[Ac trans]
-22.4 -24.2 85 -23  1030.6  765  338           
12 25.11.20 270 (З) 20000 м    3/0 средняя 
[Ac trans]
-27.9 -29.6 85 -29  1031.6  0.4  765  345    -18       
15 25.11.20 270 (З) 20000 м    4/0 средняя, верхняя 
[Ac trans|Ci fib]
-30 -31.7 85 -31  1032  0.4  766  349           
18 25.11.20 270 (З) 20000 м    6/0 средняя, верхняя 
[Ac trans|Ci fib]
-30.9 -32.5 86 -32  1032.4  0.4  766  350           
21 25.11.20 тихо ()   20000 м    3/0 верхняя 
[Ci fib]
-30.5 -32.1 86 -31  1032.4  766  349           
00 26.11.20 тихо ()   20000 м    5/0 средняя, верхняя 
[Ac trans|Ci fib]
-29.3 -31.1 84 -29  1032.3  -0.1  766  348  -33      22  равномерный
сухой снег
100% 
03 26.11.20 тихо ()   20000 м    5/0 средняя, верхняя 
[Ac trans|Cs]
-31.1 -32.8 85 -31  1031.9  -0.4  766  350           
06 26.11.20 тихо ()   20000 м    3/0 верхняя 
[Cs]
-32.3 -33.9 86 -32  1031.9  766  352           
09 26.11.20 тихо ()   20000 м    3/0 верхняя 
[Cs]
-33.2 -35.6 79 -33  1032.3  0.7  766  353           
12 26.11.20 тихо ()   20000 м    9/0 средняя 
[Ac trans]
-31.5 -33.8 80 -32  1033.2  0.6  767  351    -29.1       
15 26.11.20 тихо ()   20000 м    10/0 средняя 
[Ac und]
-28.7 -30.5 84 -29  1032.7  -0.5  766  347           
18 26.11.20 тихо ()   20000 м    10/0 средняя 
[Ac und]
-27.5 -29.3 85 -28  1032.7  0.3  766  345           
21 26.11.20 тихо ()   20000 м    10/0 средняя 
[Ac und]
-24.5 -26.3 85 -25  1033.3  0.6  767  341           
Время (UTC), дата Ветер
(°,м/с) 
Видим.   Явления Облачность Т
(°С)
Тd
(°С)
f(%) Тe
(°С)
Pmin
(гПа)
dP
(гПа)
Po
(мм)
O2
(г/м3)
Тmin Tmax R s Состояние
почвы

Для получения пояснительной информации подведите курсор к названию столбца.

ПОГОДА в Сухане - архив

Всё, что Вы хотите узнать о погоде в Сухане - удобно и подробно!

Выберите нужную дату (начиная с 1 января 2019* года) и нажмите кнопку "Найти".
Будут отображены архивные сводки погоды по пункту Сухана, начиная с указанной даты.


Отображать данные в формате CSV (для использования в таблицах Excel)


Внимание! Наш архив погоды предназначен исключительно для личного некоммерческого использования в познавательных целях. Если Вам необходимы официальные справки о состоянии погоды (для производственных, юридических, коммерческих и т.п. целей), обращайтесь в органы Росгидромета.

*Примечание: данная дата относится к архиву по метеостанциям СССР (Россия, СНГ, Балтия).
Архив по метеостанциям Зарубежной Европы и Азии (кроме Китая) хранится 10 дней, по другим регионам земного шара (Китай, Африка, Америка, Австралия, Океания) - 1 день.

Сухана - район местоположения метеостанции


Название, широта, долгота, высота метеостанции:
Сухана 68.62°ш. 118.33°д. 77 м над ур. моря [Российская Федерация]

Дополнительная информация

В oтличие oт бoльшинства пoгoдных сайтoв мы публикуем пoдрoбную метеoинфoрмацию в детальнoм прoфессиoнальнoм фoрмате.

Характеристики температуры и влажнoсти вoздуха измеряются на высoте 2 м в тени вдали oт зданий и деревьев.
Скoрoсть ветра измеряется на высoте 10 м (на урoвне рoста челoвека скoрoсть ветра ниже в 1.5-2 раза). Если метеoстанция нахoдится в гoрoде или в лесу, тo скoрoсть ветра занижена на 2-4 м/с пo сравнению с oткрытым местoм. Скoрoсть ветра над акватoриями крупных рек и oзёр, а также на вершинах хoлмoв на 2-5 м/с выше, чем в oбычных услoвиях.
Атмoсфернoе давление в разных тoчках местнoсти мoжет значительнo oтличаться oт давления на метеoстанции, в зависимoсти oт услoвий рельефа (при пoдъёме на 10 м давление пoнижается примернo на 1 мм рт.ст.).